{"data":{"norad_id":61854,"epoch":"2026-09-21T06:47:13.161408Z","epoch_age_seconds":121225,"freshness":"FRESH","line1":"1 61854U 24202K   26264.28279122  .00000856  00000+0  40632-4 0  9994","line2":"2 61854  43.0000 213.1593 0001145 273.7653  86.3068 15.27587118105250","mean_motion":15.27587118,"eccentricity":0.0001145,"inclination_deg":43,"raan_deg":213.1593,"arg_perigee_deg":273.7653,"mean_anomaly_deg":86.3068,"bstar":4.0632e-5,"rev_number":10525,"period_min":94.266309464911,"perigee_km":482.24217890216,"apogee_km":483.8133856373,"semimajor_km":6861.1647822697,"source":"CELESTRAK","updated_at":"2026-09-22T09:00:49.441504Z"}}